• en France
  • Liste des pays
  • À 7 jours
  • Température de l'eau
  • Carte satellitaire
  • Carte météo
  • Widgets météo
  • user-avatar
    Se connecter

    Météo par heure à Innsbruck

    Ce jour, 16 Octobre, Mardi

    Heure Température Précipitation Vent Pression Humidité
    00:00 +2°C° 0 mm 2 m/s 596 mmHg 87%
    01:00 +1°C° 0 mm 2 m/s 596 mmHg 87%
    02:00 +1°C° 0 mm 2 m/s 596 mmHg 86%
    03:00 +1°C° 0 mm 2 m/s 596 mmHg 86%
    04:00 +1°C° 0 mm 2 m/s 596 mmHg 85%
    05:00 +1°C° 0 mm 2 m/s 596 mmHg 84%
    06:00 +1°C° 0 mm 2 m/s 596 mmHg 83%
    07:00 +2°C° 0 mm 1 m/s 596 mmHg 82%
    08:00 +4°C° 0 mm 1 m/s 598 mmHg 72%
    09:00 +7°C° 0 mm 1 m/s 599 mmHg 62%
    10:00 +10°C° 0 mm 1 m/s 600 mmHg 52%
    11:00 +11°C° 0 mm 1 m/s 600 mmHg 48%
    12:00 +11°C° 0 mm 1 m/s 600 mmHg 45%
    13:00 +12°C° 0 mm 1 m/s 601 mmHg 42%
    14:00 +12°C° 0 mm 1 m/s 600 mmHg 46%
    15:00 +11°C° 0 mm 1 m/s 600 mmHg 50%
    16:00 +11°C° 0 mm 1 m/s 600 mmHg 54%
    17:00 +8°C° 0 mm 1 m/s 599 mmHg 64%
    18:00 +6°C° 0 mm 1 m/s 598 mmHg 75%
    19:00 +4°C° 0 mm 1 m/s 597 mmHg 86%
    20:00 +4°C° 0 mm 1 m/s 597 mmHg 85%
    21:00 +3°C° 0 mm 1 m/s 597 mmHg 85%
    22:00 +3°C° 0 mm 1 m/s 597 mmHg 85%
    23:00 +3°C° 0 mm 1 m/s 597 mmHg 85%

    Demain, 17 Octobre, Mercredi

    Heure Température Précipitation Vent Pression Humidité
    00:00 +3°C° 0 mm 1 m/s 597 mmHg 84%
    01:00 +3°C° 0 mm 1 m/s 597 mmHg 84%
    02:00 +3°C° 0 mm 1 m/s 597 mmHg 84%
    03:00 +3°C° 0 mm 1 m/s 597 mmHg 84%
    04:00 +3°C° 0 mm 1 m/s 596 mmHg 85%
    05:00 +3°C° 0 mm 1 m/s 596 mmHg 85%
    06:00 +3°C° 0 mm 1 m/s 596 mmHg 85%
    07:00 +3°C° 0 mm 1 m/s 596 mmHg 85%
    08:00 +5°C° 0 mm 1 m/s 598 mmHg 75%
    09:00 +7°C° 0 mm 0 m/s 599 mmHg 65%
    10:00 +9°C° 0 mm 0 m/s 600 mmHg 55%
    11:00 +10°C° 0 mm 0 m/s 600 mmHg 53%
    12:00 +12°C° 0 mm 1 m/s 600 mmHg 50%
    13:00 +12°C° 0 mm 1 m/s 600 mmHg 47%
    14:00 +12°C° 0 mm 1 m/s 600 mmHg 51%
    15:00 +11°C° 0 mm 1 m/s 599 mmHg 55%
    16:00 +10°C° 0 mm 1 m/s 599 mmHg 59%
    17:00 +8°C° 0 mm 1 m/s 598 mmHg 70%
    18:00 +6°C° 0 mm 1 m/s 597 mmHg 81%
    19:00 +3°C° 0 mm 0 m/s 596 mmHg 91%
    20:00 +3°C° 0 mm 1 m/s 596 mmHg 91%
    21:00 +3°C° 0 mm 1 m/s 596 mmHg 91%
    22:00 +3°C° 0 mm 1 m/s 596 mmHg 90%
    23:00 +3°C° 0 mm 1 m/s 596 mmHg 90%

    Après-demain, 18 Octobre, Jeudi

    Heure Température Précipitation Vent Pression Humidité
    00:00 +3°C° 0 mm 1 m/s 596 mmHg 89%
    01:00 +3°C° 0 mm 1 m/s 596 mmHg 89%
    02:00 +2°C° 0 mm 1 m/s 596 mmHg 88%
    03:00 +2°C° 0 mm 1 m/s 596 mmHg 88%
    04:00 +2°C° 0 mm 1 m/s 596 mmHg 88%
    05:00 +2°C° 0 mm 1 m/s 596 mmHg 88%
    06:00 +2°C° 0 mm 1 m/s 596 mmHg 88%
    07:00 +2°C° 0 mm 1 m/s 596 mmHg 88%
    08:00 +5°C° 0 mm 1 m/s 597 mmHg 78%
    09:00 +7°C° 0 mm 1 m/s 598 mmHg 69%
    10:00 +10°C° 0 mm 1 m/s 599 mmHg 60%
    11:00 +10°C° 0 mm 1 m/s 599 mmHg 58%
    12:00 +11°C° 0 mm 1 m/s 600 mmHg 55%
    13:00 +12°C° 0 mm 1 m/s 600 mmHg 53%
    14:00 +11°C° 0 mm 1 m/s 599 mmHg 57%
    15:00 +11°C° 0 mm 1 m/s 599 mmHg 62%
    16:00 +10°C° 0 mm 1 m/s 599 mmHg 66%
    17:00 +8°C° 0 mm 1 m/s 598 mmHg 75%
    18:00 +6°C° 0 mm 1 m/s 597 mmHg 84%
    19:00 +3°C° 0 mm 0 m/s 597 mmHg 93%
    20:00 +4°C° 0 mm 1 m/s 597 mmHg 92%
    21:00 +3°C° 0 mm 1 m/s 597 mmHg 92%
    22:00 +3°C° 0 mm 1 m/s 597 mmHg 92%
    23:00 +3°C° 0 mm 1 m/s 597 mmHg 91%

    19 Octobre, Vendredi

    Heure Température Précipitation Vent Pression Humidité
    00:00 +3°C° 0 mm 1 m/s 597 mmHg 91%
    01:00 +3°C° 0 mm 1 m/s 597 mmHg 90%
    02:00 +3°C° 0 mm 1 m/s 597 mmHg 90%
    03:00 +3°C° 0 mm 1 m/s 597 mmHg 89%
    04:00 +2°C° 0 mm 1 m/s 596 mmHg 89%
    05:00 +2°C° 0 mm 1 m/s 597 mmHg 88%
    06:00 +2°C° 0 mm 1 m/s 597 mmHg 88%
    07:00 +2°C° 0 mm 1 m/s 597 mmHg 88%
    08:00 +5°C° 0 mm 1 m/s 598 mmHg 79%
    09:00 +6°C° 0 mm 0 m/s 599 mmHg 70%
    10:00 +9°C° 0 mm 0 m/s 601 mmHg 61%
    11:00 +11°C° 0 mm 1 m/s 601 mmHg 59%
    12:00 +11°C° 0 mm 1 m/s 601 mmHg 56%
    13:00 +12°C° 0 mm 1 m/s 601 mmHg 54%
    14:00 +12°C° 0 mm 1 m/s 601 mmHg 58%
    15:00 +11°C° 0 mm 1 m/s 601 mmHg 63%
    16:00 +10°C° 0 mm 1 m/s 600 mmHg 67%
    17:00 +8°C° 0 mm 1 m/s 600 mmHg 76%
    18:00 +6°C° 0 mm 1 m/s 599 mmHg 85%
    19:00 +3°C° 0 mm 0 m/s 598 mmHg 94%
    20:00 +3°C° 0 mm 0 m/s 598 mmHg 94%
    21:00 +3°C° 0 mm 0 m/s 599 mmHg 94%
    22:00 +2°C° 0 mm 0 m/s 599 mmHg 95%
    23:00 +2°C° 0 mm 0 m/s 599 mmHg 95%

    20 Octobre, Samedi

    Heure Température Précipitation Vent Pression Humidité
    00:00 +2°C° 0 mm 0 m/s 598 mmHg 95%
    01:00 +2°C° 0 mm 0 m/s 598 mmHg 95%
    02:00 +1°C° 0 mm 0 m/s 598 mmHg 95%
    03:00 +2°C° 0 mm 1 m/s 598 mmHg 95%
    04:00 +2°C° 0 mm 1 m/s 598 mmHg 95%
    05:00 +2°C° 0 mm 1 m/s 598 mmHg 95%
    06:00 +2°C° 0 mm 1 m/s 599 mmHg 96%
    07:00 +3°C° 0 mm 1 m/s 599 mmHg 96%
    08:00 +4°C° 0 mm 1 m/s 600 mmHg 88%
    09:00 +6°C° 0 mm 1 m/s 601 mmHg 80%
    10:00 +8°C° 0 mm 1 m/s 602 mmHg 72%
    11:00 +9°C° 0 mm 1 m/s 602 mmHg 69%
    12:00 +8°C° 0 mm 2 m/s 602 mmHg 66%
    13:00 +9°C° 0 mm 2 m/s 602 mmHg 63%
    14:00 +8°C° 0 mm 2 m/s 602 mmHg 67%
    15:00 +7°C° 0 mm 2 m/s 601 mmHg 71%
    16:00 +7°C° 0 mm 2 m/s 601 mmHg 76%
    17:00 +6°C° 0 mm 2 m/s 601 mmHg 82%
    18:00 +4°C° 0 mm 2 m/s 601 mmHg 87%
    19:00 +4°C° 0 mm 1 m/s 601 mmHg 93%
    20:00 +4°C° 0 mm 1 m/s 601 mmHg 93%
    21:00 +3°C° 0 mm 1 m/s 600 mmHg 94%
    22:00 +3°C° 0 mm 1 m/s 600 mmHg 95%
    23:00 +2°C° 0 mm 1 m/s 600 mmHg 94%

    21 Octobre, Dimanche

    Heure Température Précipitation Vent Pression Humidité
    00:00 +1°C° 0 mm 1 m/s 600 mmHg 93%
    01:00 +1°C° 0 mm 1 m/s 599 mmHg 92%
    02:00 +1°C° 0 mm 1 m/s 599 mmHg 91%
    03:00 0°C° 0 mm 1 m/s 599 mmHg 90%
    04:00 0°C° 0 mm 1 m/s 599 mmHg 89%
    05:00 0°C° 0 mm 1 m/s 599 mmHg 87%
    06:00 0°C° 0 mm 1 m/s 599 mmHg 85%
    07:00 0°C° 0 mm 1 m/s 599 mmHg 83%
    08:00 +1°C° 0 mm 2 m/s 600 mmHg 74%
    09:00 +3°C° 0 mm 2 m/s 601 mmHg 65%
    10:00 +6°C° 0 mm 2 m/s 602 mmHg 56%
    11:00 +7°C° 0 mm 2 m/s 602 mmHg 51%
    12:00 +8°C° 0 mm 2 m/s 602 mmHg 46%
    13:00 +9°C° 0 mm 2 m/s 602 mmHg 41%
    14:00 +8°C° 0 mm 2 m/s 602 mmHg 46%
    15:00 +7°C° 0 mm 2 m/s 601 mmHg 51%
    16:00 +6°C° 0 mm 2 m/s 601 mmHg 56%
    17:00 +4°C° 0 mm 2 m/s 600 mmHg 66%
    18:00 +2°C° 0 mm 2 m/s 600 mmHg 77%
    19:00 +1°C° 0 mm 1 m/s 599 mmHg 87%
    20:00 +1°C° 0 mm 1 m/s 599 mmHg 85%
    21:00 +1°C° 0 mm 1 m/s 599 mmHg 83%
    22:00 +1°C° 0 mm 1 m/s 599 mmHg 81%
    23:00 +1°C° 0 mm 1 m/s 599 mmHg 77%
    Voir plus